| time (UTC) | temp C | wind direction | speed KPH | gust KPH | rain 1hr cm | rain 24hr cm | rain mn cm | humidity % | barometer mb |
| 20260504225521 | 26 | 203 | 1.6 | 9.7 | 0.00 | 0.00 | 0.00 | 47 | 1002.0 |
| 20260504225026 | 26 | 161 | 0.0 | 14.5 | 0.00 | 0.00 | 0.00 | 47 | 1002.0 |
| 20260504224532 | 26 | 275 | 1.6 | 14.5 | 0.00 | 0.00 | 0.00 | 46 | 1002.1 |
| 20260504224017 | 26 | 212 | 0.0 | 11.3 | 0.00 | 0.00 | 0.00 | 46 | 1002.0 |
| 20260504223522 | 26 | 197 | 1.6 | 17.7 | 0.00 | 0.00 | 0.00 | 47 | 1002.1 |
| 20260504223028 | 26 | 213 | 4.8 | 17.7 | 0.00 | 0.00 | 0.00 | 46 | 1002.1 |
| 20260504222534 | 26 | 200 | 1.6 | 8.0 | 0.00 | 0.00 | 0.00 | 46 | 1002.1 |
| 20260504222021 | 26 | 177 | 1.6 | 20.9 | 0.00 | 0.00 | 0.00 | 45 | 1002.3 |
| 20260504221525 | 26 | 218 | 4.8 | 20.9 | 0.00 | 0.00 | 0.00 | 46 | 1002.2 |
| 20260504221050 | 26 | 231 | 4.8 | 19.3 | 0.00 | 0.00 | 0.00 | 46 | 1002.2 |
| 20260504220534 | 26 | 213 | 3.2 | 19.3 | 0.00 | 0.00 | 0.00 | 46 | 1002.2 |
| 20260504220018 | 26 | 259 | 1.6 | 16.1 | 0.00 | 0.00 | 0.00 | 47 | 1002.2 |
| 20260504215523 | 26 | 211 | 1.6 | 9.7 | 0.00 | 0.00 | 0.00 | 47 | 1002.3 |
| 20260504215048 | 26 | 200 | 1.6 | 20.9 | 0.00 | 0.00 | 0.00 | 47 | 1002.3 |
| 20260504214552 | 26 | 229 | 1.6 | 11.3 | 0.00 | 0.00 | 0.00 | 47 | 1002.3 |
| 20260504214017 | 26 | 188 | 1.6 | 11.3 | 0.00 | 0.00 | 0.00 | 47 | 1002.3 |
| 20260504213523 | 26 | 284 | 1.6 | 16.1 | 0.00 | 0.00 | 0.00 | 47 | 1002.3 |
| 20260504213028 | 26 | 202 | 1.6 | 16.1 | 0.00 | 0.00 | 0.00 | 47 | 1002.3 |
| 20260504212533 | 26 | 232 | 1.6 | 22.5 | 0.00 | 0.00 | 0.00 | 47 | 1002.3 |
| 20260504212018 | 26 | 202 | 3.2 | 22.5 | 0.00 | 0.00 | 0.00 | 47 | 1002.5 |
| 20260504211528 | 26 | 188 | 4.8 | 22.5 | 0.00 | 0.00 | 0.00 | 47 | 1002.5 |
| 20260504211032 | 26 | 186 | 1.6 | 16.1 | 0.00 | 0.00 | 0.00 | 46 | 1002.6 |
| 20260504210518 | 26 | 189 | 3.2 | 20.9 | 0.00 | 0.00 | 0.00 | 45 | 1002.5 |
| 20260504210043 | 27 | 201 | 6.4 | 20.9 | 0.00 | 0.00 | 0.00 | 45 | 1002.5 |
| 20260504205527 | 27 | 208 | 3.2 | 25.7 | 0.00 | 0.00 | 0.00 | 46 | 1002.5 |
| 20260504205032 | 26 | 202 | 4.8 | 25.7 | 0.00 | 0.00 | 0.00 | 45 | 1002.6 |
| 20260504204517 | 26 | 246 | 3.2 | 17.7 | 0.00 | 0.00 | 0.00 | 45 | 1002.7 |
| 20260504204023 | 27 | 175 | 3.2 | 9.7 | 0.00 | 0.00 | 0.00 | 45 | 1002.8 |
| 20260504203528 | 26 | 239 | 1.6 | 19.3 | 0.00 | 0.00 | 0.00 | 45 | 1002.7 |
| 20260504203033 | 27 | 193 | 6.4 | 19.3 | 0.00 | 0.00 | 0.00 | 43 | 1002.8 |
| 20260504202518 | 27 | 234 | 4.8 | 16.1 | 0.00 | 0.00 | 0.00 | 44 | 1003.0 |
| 20260504202028 | 26 | 265 | 3.2 | 20.9 | 0.00 | 0.00 | 0.00 | 45 | 1003.0 |
| 20260504201533 | 27 | 227 | 4.8 | 20.9 | 0.00 | 0.00 | 0.00 | 44 | 1003.1 |
| 20260504201037 | 26 | 217 | 3.2 | 16.1 | 0.00 | 0.00 | 0.00 | 45 | 1003.0 |
| 20260504200522 | 27 | 232 | 1.6 | 25.7 | 0.00 | 0.00 | 0.00 | 44 | 1003.1 |
| 20260504200048 | 27 | 212 | 4.8 | 17.7 | 0.00 | 0.00 | 0.00 | 45 | 1003.2 |
| 20260504195531 | 26 | 228 | 1.6 | 16.1 | 0.00 | 0.00 | 0.00 | 45 | 1003.4 |
| 20260504195035 | 26 | 201 | 3.2 | 12.9 | 0.00 | 0.00 | 0.00 | 45 | 1003.4 |
| 20260504194519 | 26 | 200 | 1.6 | 19.3 | 0.00 | 0.00 | 0.00 | 45 | 1003.3 |
| 20260504194044 | 26 | 200 | 3.2 | 19.3 | 0.00 | 0.00 | 0.00 | 45 | 1003.6 |
| 20260504193530 | 26 | 156 | 3.2 | 17.7 | 0.00 | 0.00 | 0.00 | 45 | 1003.5 |
| 20260504193035 | 26 | 219 | 1.6 | 16.1 | 0.00 | 0.00 | 0.00 | 45 | 1003.5 |
| 20260504192520 | 26 | 194 | 3.2 | 24.1 | 0.00 | 0.00 | 0.00 | 45 | 1003.6 |
| 20260504192029 | 26 | 275 | 4.8 | 24.1 | 0.00 | 0.00 | 0.00 | 45 | 1003.7 |
| 20260504191533 | 26 | 231 | 3.2 | 22.5 | 0.00 | 0.00 | 0.00 | 45 | 1003.7 |
| 20260504191018 | 26 | 226 | 4.8 | 17.7 | 0.00 | 0.00 | 0.00 | 45 | 1003.6 |
| 20260504190543 | 26 | 229 | 1.6 | 19.3 | 0.00 | 0.00 | 0.00 | 44 | 1003.7 |
| 20260504190047 | 26 | 200 | 1.6 | 19.3 | 0.00 | 0.00 | 0.00 | 45 | 1003.7 |
| 20260504185531 | 26 | 245 | 1.6 | 11.3 | 0.00 | 0.00 | 0.00 | 46 | 1003.7 |
| 20260504185057 | 26 | 206 | 1.6 | 14.5 | 0.00 | 0.00 | 0.00 | 46 | 1003.8 |
| 20260504184520 | 26 | 207 | 1.6 | 17.7 | 0.00 | 0.00 | 0.00 | 45 | 1003.9 |
| 20260504184045 | 26 | 207 | 3.2 | 20.9 | 0.00 | 0.00 | 0.00 | 44 | 1003.9 |
| 20260504183528 | 26 | 257 | 4.8 | 22.5 | 0.00 | 0.00 | 0.00 | 45 | 1003.8 |
| 20260504183036 | 26 | 266 | 3.2 | 22.5 | 0.00 | 0.00 | 0.00 | 45 | 1003.9 |
| 20260504182520 | 26 | 246 | 1.6 | 17.7 | 0.00 | 0.00 | 0.00 | 46 | 1003.9 |
| 20260504182026 | 26 | 259 | 1.6 | 20.9 | 0.00 | 0.00 | 0.00 | 45 | 1003.9 |
| 20260504181529 | 26 | 230 | 3.2 | 20.9 | 0.00 | 0.00 | 0.00 | 45 | 1004.0 |
| 20260504181018 | 26 | 215 | 3.2 | 16.1 | 0.00 | 0.00 | 0.00 | 45 | 1004.0 |
| 20260504180524 | 26 | 238 | 0.0 | 4.8 | 0.00 | 0.00 | 0.00 | 46 | 1003.9 |
| 20260504180029 | 26 | 200 | 0.0 | 20.9 | 0.00 | 0.00 | 0.00 | 46 | 1004.0 |
| 20260504175534 | 26 | 200 | 1.6 | 20.9 | 0.00 | 0.00 | 0.00 | 46 | 1004.0 |
| 20260504175019 | 25 | 229 | 3.2 | 24.1 | 0.00 | 0.00 | 0.00 | 46 | 1004.0 |
| 20260504174545 | 25 | 244 | 4.8 | 24.1 | 0.00 | 0.00 | 0.00 | 46 | 1004.0 |
| 20260504174049 | 25 | 258 | 1.6 | 22.5 | 0.00 | 0.00 | 0.00 | 46 | 1004.0 |
| 20260504173532 | 25 | 199 | 3.2 | 22.5 | 0.00 | 0.00 | 0.00 | 46 | 1004.0 |
| 20260504173018 | 25 | 252 | 1.6 | 25.7 | 0.00 | 0.00 | 0.00 | 47 | 1004.0 |
| 20260504172522 | 25 | 244 | 3.2 | 25.7 | 0.00 | 0.00 | 0.00 | 47 | 1004.0 |
| 20260504172027 | 25 | 255 | 4.8 | 22.5 | 0.00 | 0.00 | 0.00 | 47 | 1004.0 |
| 20260504171552 | 25 | 216 | 4.8 | 17.7 | 0.00 | 0.00 | 0.00 | 47 | 1003.9 |
| 20260504171019 | 25 | 264 | 3.2 | 24.1 | 0.00 | 0.00 | 0.00 | 47 | 1004.0 |
| 20260504170544 | 25 | 207 | 6.4 | 24.1 | 0.00 | 0.00 | 0.00 | 46 | 1003.9 |
| 20260504151031 | 22 | 255 | 8.0 | 29.0 | 0.00 | 0.00 | 0.00 | 48 | 1004.4 |
| 20260504150556 | 22 | 257 | 4.8 | 22.5 | 0.00 | 0.00 | 0.00 | 49 | 1004.4 |
| 20260504141033 | 20 | 218 | 3.2 | 16.1 | 0.00 | 0.00 | 0.00 | 53 | 1005.3 |
| 20260504140519 | 20 | 201 | 4.8 | 16.1 | 0.00 | 0.00 | 0.00 | 54 | 1005.3 |
| 20260504130523 | 18 | 207 | 3.2 | 16.1 | 0.00 | 0.00 | 0.00 | 57 | 1005.7 |
| 20260504110521 | 17 | 227 | 1.6 | 12.9 | 0.00 | 0.00 | 0.00 | 55 | 1005.9 |
| 20260504100536 | 18 | 215 | 0.0 | 4.8 | 0.00 | 0.00 | 0.00 | 55 | 1006.5 |
| 20260504081529 | 18 | 242 | 1.6 | 6.4 | 0.00 | 0.00 | 0.00 | 54 | 1006.6 |
| 20260504081054 | 18 | 224 | 1.6 | 6.4 | 0.00 | 0.00 | 0.00 | 54 | 1006.6 |
| 20260504080519 | 18 | 234 | 0.0 | 6.4 | 0.00 | 0.00 | 0.00 | 54 | 1006.6 |
| 20260504050539 | 20 | 193 | 0.0 | 3.2 | 0.00 | 0.00 | 0.00 | 53 | 1008.0 |
| 20260504050023 | 20 | 178 | 0.0 | 3.2 | 0.00 | 0.00 | 0.00 | 52 | 1008.0 |
| 20260504045547 | 20 | 235 | 0.0 | 3.2 | 0.00 | 0.00 | 0.00 | 52 | 1008.0 |
| 20260504045031 | 20 | 221 | 0.0 | 3.2 | 0.00 | 0.00 | 0.00 | 52 | 1008.0 |
| 20260504044516 | 20 | 245 | 0.0 | 3.2 | 0.00 | 0.00 | 0.00 | 52 | 1007.9 |
| 20260504044042 | 20 | 204 | 0.0 | 3.2 | 0.00 | 0.00 | 0.00 | 51 | 1008.0 |
| 20260504043526 | 20 | 212 | 0.0 | 3.2 | 0.00 | 0.00 | 0.00 | 51 | 1008.0 |
| 20260504043031 | 20 | 188 | 0.0 | 3.2 | 0.00 | 0.00 | 0.00 | 51 | 1008.1 |
| 20260504042536 | 20 | 173 | 0.0 | 3.2 | 0.00 | 0.00 | 0.00 | 51 | 1008.1 |
| 20260504042019 | 20 | 194 | 0.0 | 3.2 | 0.00 | 0.00 | 0.00 | 51 | 1008.2 |
| 20260504041522 | 20 | 209 | 0.0 | 1.6 | 0.00 | 0.00 | 0.00 | 51 | 1008.2 |
| 20260504041025 | 20 | 215 | 0.0 | 3.2 | 0.00 | 0.00 | 0.00 | 51 | 1008.2 |
| 20260504040523 | 20 | 202 | 0.0 | 3.2 | 0.00 | 0.00 | 0.00 | 51 | 1008.2 |
| 20260504040033 | 20 | 224 | 0.0 | 1.6 | 0.00 | 0.00 | 0.00 | 51 | 1008.3 |
| 20260504035557 | 20 | 201 | 0.0 | 3.2 | 0.00 | 0.00 | 0.00 | 51 | 1008.3 |
| 20260504035020 | 20 | 185 | 0.0 | 8.0 | 0.00 | 0.00 | 0.00 | 50 | 1008.3 |
| 20260504034546 | 20 | 227 | 0.0 | 8.0 | 0.00 | 0.00 | 0.00 | 50 | 1008.4 |
| 20260504034030 | 20 | 209 | 0.0 | 1.6 | 0.00 | 0.00 | 0.00 | 50 | 1008.4 |
| 20260504033556 | 20 | 217 | 0.0 | 3.2 | 0.00 | 0.00 | 0.00 | 50 | 1008.4 |
| 20260504033019 | 20 | 196 | 0.0 | 3.2 | 0.00 | 0.00 | 0.00 | 49 | 1008.5 |
| 20260504032523 | 20 | 193 | 0.0 | 1.6 | 0.00 | 0.00 | 0.00 | 49 | 1008.5 |
| 20260504032028 | 21 | 232 | 0.0 | 1.6 | 0.00 | 0.00 | 0.00 | 49 | 1008.5 |
| 20260504031534 | 21 | 171 | 0.0 | 1.6 | 0.00 | 0.00 | 0.00 | 49 | 1008.5 |
| 20260504031019 | 21 | 198 | 0.0 | 1.6 | 0.00 | 0.00 | 0.00 | 49 | 1008.5 |
| 20260504030524 | 21 | 192 | 0.0 | 1.6 | 0.00 | 0.00 | 0.00 | 49 | 1008.5 |
| 20260504030029 | 21 | 186 | 0.0 | 1.6 | 0.00 | 0.00 | 0.00 | 49 | 1008.5 |
| 20260504025519 | 21 | 209 | 0.0 | 1.6 | 0.00 | 0.00 | 0.00 | 49 | 1008.6 |
| 20260504025043 | 21 | 198 | 0.0 | 1.6 | 0.00 | 0.00 | 0.00 | 49 | 1008.5 |
| 20260504024528 | 21 | 109 | 0.0 | 1.6 | 0.00 | 0.00 | 0.00 | 49 | 1008.5 |
| 20260504024054 | 21 | 213 | 0.0 | 1.6 | 0.00 | 0.00 | 0.00 | 49 | 1008.5 |
| 20260504023518 | 21 | 213 | 0.0 | 1.6 | 0.00 | 0.00 | 0.00 | 49 | 1008.5 |
| 20260504023023 | 21 | 215 | 0.0 | 1.6 | 0.00 | 0.00 | 0.00 | 49 | 1008.5 |
| 20260504022529 | 21 | 181 | 0.0 | 1.6 | 0.00 | 0.00 | 0.00 | 49 | 1008.5 |
| 20260504022033 | 21 | 192 | 0.0 | 0.0 | 0.00 | 0.00 | 0.00 | 49 | 1008.5 |
| 20260504021518 | 21 | 178 | 0.0 | 0.0 | 0.00 | 0.00 | 0.00 | 48 | 1008.5 |
| 20260504021024 | 21 | 196 | 0.0 | 0.0 | 0.00 | 0.00 | 0.00 | 48 | 1008.5 |
| 20260504020549 | 21 | 190 | 0.0 | 0.0 | 0.00 | 0.00 | 0.00 | 47 | 1008.5 |
| 20260504020053 | 21 | 196 | 0.0 | 0.0 | 0.00 | 0.00 | 0.00 | 46 | 1008.5 |
| 20260504015518 | 21 | 169 | 0.0 | 0.0 | 0.00 | 0.00 | 0.00 | 46 | 1008.5 |
| 20260504015027 | 21 | 211 | 0.0 | 0.0 | 0.00 | 0.00 | 0.00 | 46 | 1008.4 |
| 20260504014532 | 21 | 219 | 0.0 | 0.0 | 0.00 | 0.00 | 0.00 | 45 | 1008.5 |
| 20260504014058 | 22 | 162 | 0.0 | 0.0 | 0.00 | 0.00 | 0.00 | 45 | 1008.4 |
| 20260504013520 | 22 | 197 | 0.0 | 0.0 | 0.00 | 0.00 | 0.00 | 44 | 1008.4 |
| 20260504013025 | 22 | 200 | 0.0 | 0.0 | 0.00 | 0.00 | 0.00 | 43 | 1008.4 |
| 20260504012531 | 22 | 182 | 0.0 | 0.0 | 0.00 | 0.00 | 0.00 | 43 | 1008.5 |
| 20260504012035 | 22 | 186 | 0.0 | 0.0 | 0.00 | 0.00 | 0.00 | 42 | 1008.4 |
| 20260504011520 | 22 | 193 | 0.0 | 0.0 | 0.00 | 0.00 | 0.00 | 41 | 1008.4 |
| 20260504011025 | 22 | 209 | 0.0 | 0.0 | 0.00 | 0.00 | 0.00 | 41 | 1008.5 |
| 20260504010530 | 23 | 194 | 0.0 | 0.0 | 0.00 | 0.00 | 0.00 | 41 | 1008.5 |
| 20260504010035 | 23 | 210 | 0.0 | 0.0 | 0.00 | 0.00 | 0.00 | 41 | 1008.6 |
| 20260504005540 | 23 | 209 | 0.0 | 0.0 | 0.00 | 0.00 | 0.00 | 41 | 1008.6 |
| 20260504005027 | 23 | 216 | 0.0 | 0.0 | 0.00 | 0.00 | 0.00 | 41 | 1008.6 |
| 20260504004533 | 23 | 197 | 0.0 | 0.0 | 0.00 | 0.00 | 0.00 | 41 | 1008.6 |
| 20260504004018 | 23 | 202 | 0.0 | 0.0 | 0.00 | 0.00 | 0.00 | 41 | 1008.7 |
| 20260504003523 | 23 | 227 | 0.0 | 0.0 | 0.00 | 0.00 | 0.00 | 40 | 1008.7 |
| 20260504003028 | 24 | 212 | 0.0 | 0.0 | 0.00 | 0.00 | 0.00 | 40 | 1008.7 |
| 20260504002533 | 24 | 209 | 0.0 | 0.0 | 0.00 | 0.00 | 0.00 | 40 | 1008.7 |
| 20260504002018 | 24 | 207 | 0.0 | 0.0 | 0.00 | 0.00 | 0.00 | 39 | 1008.8 |
| 20260504001524 | 24 | 245 | 0.0 | 0.0 | 0.00 | 0.00 | 0.00 | 39 | 1008.7 |
| 20260504001029 | 25 | 233 | 0.0 | 0.0 | 0.00 | 0.00 | 0.00 | 38 | 1008.7 |
| 20260504000554 | 25 | 240 | 0.0 | 0.0 | 0.00 | 0.00 | 0.00 | 37 | 1008.7 |
| 20260504000018 | 25 | 210 | 0.0 | 1.6 | 0.00 | 0.00 | 0.00 | 37 | 1008.7 |
| 20260503235543 | 25 | 209 | 0.0 | 1.6 | 0.00 | 0.00 | 0.00 | 35 | 1008.7 |
| 20260503235047 | 25 | 215 | 0.0 | 0.0 | 0.00 | 0.00 | 0.00 | 35 | 1008.7 |
| 20260503234535 | 25 | 244 | 0.0 | 1.6 | 0.00 | 0.00 | 0.00 | 34 | 1008.8 |
| 20260503234041 | 25 | 236 | 0.0 | 4.8 | 0.00 | 0.00 | 0.00 | 34 | 1008.8 |
| 20260503233545 | 25 | 231 | 0.0 | 4.8 | 0.00 | 0.00 | 0.00 | 34 | 1008.7 |
| 20260503233029 | 25 | 205 | 0.0 | 1.6 | 0.00 | 0.00 | 0.00 | 34 | 1008.8 |
| 20260503232534 | 25 | 224 | 0.0 | 1.6 | 0.00 | 0.00 | 0.00 | 34 | 1008.7 |
| 20260503232018 | 25 | 239 | 0.0 | 6.4 | 0.00 | 0.00 | 0.00 | 34 | 1008.8 |
| 20260503231545 | 25 | 232 | 0.0 | 11.3 | 0.00 | 0.00 | 0.00 | 34 | 1008.9 |
| 20260503231028 | 25 | 214 | 0.0 | 11.3 | 0.00 | 0.00 | 0.00 | 35 | 1008.8 |
| 20260503230534 | 26 | 197 | 0.0 | 4.8 | 0.00 | 0.00 | 0.00 | 36 | 1008.8 |